GFSNE_850_temp_000.txt.gz
Temp
-3 -3 -3 -3 -3 -3 -4 -4 -3 -2 -1 2 2 2 1 1 1 0 0 1 0 1 1 1 2 2 2 2 3 3 4 5 6 6 6 6 6 7
-3 -3 -3 -2 -2 -3 -3 -3 -2 -2 -1 0 1 1 1 1 0 -0 -0 -1 -1 -1 -0 0 1 1 1 2 2 2 3 3 4 5 5 5 6 6
-3 -2 -2 -2 -2 -2 -2 -2 -2 -2 -1 -1 -0 -0 -0 -1 -1 -1 -1 -1 -1 -1 -1 -1 -0 0 1 1 1 1 1 2 3 3 4 3 4 6
-3 -3 -3 -3 -3 -3 -3 -3 -3 -3 -2 -2 -1 -1 -1 -1 -1 -1 -1 -1 -1 -1 -1 -2 -2 -1 -0 0 0 1 1 1 1 2 3 3 3 4
-4 -4 -4 -4 -4 -4 -4 -4 -4 -4 -3 -3 -3 -2 -2 -2 -2 -2 -2 -2 -2 -2 -2 -2 -3 -3 -2 -1 -0 -0 0 1 1 1 2 3 3 4
-5 -6 -6 -6 -6 -6 -5 -5 -5 -5 -4 -4 -4 -3 -3 -3 -3 -3 -2 -2 -2 -2 -2 -3 -3 -3 -3 -3 -2 -1 -1 -0 1 1 1 2 2 3
-6 -6 -6 -7 -7 -7 -7 -7 -6 -6 -5 -4 -4 -4 -3 -3 -3 -3 -3 -3 -3 -3 -3 -3 -3 -3 -3 -3 -3 -3 -2 -1 -0 0 1 1 2 2
-6 -6 -7 -7 -8 -8 -9 -9 -9 -8 -7 -6 -6 -6 -5 -5 -5 -5 -5 -5 -5 -4 -4 -4 -4 -4 -3 -3 -3 -3 -3 -2 -1 -0 -0 0 1 1
-7 -7 -8 -8 -8 -8 -8 -9 -9 -10 -10 -9 -9 -8 -7 -7 -7 -7 -6 -6 -6 -5 -5 -5 -5 -5 -5 -4 -4 -4 -4 -4 -3 -2 -1 -0 0 1
-8 -8 -8 -8 -8 -9 -9 -9 -9 -9 -9 -9 -9 -9 -8 -8 -8 -7 -7 -7 -7 -7 -6 -7 -6 -6 -6 -6 -5 -5 -5 -5 -4 -3 -2 -1 -1 -0
-9 -9 -9 -10 -10 -10 -10 -10 -9 -9 -9 -8 -8 -9 -9 -9 -9 -8 -8 -8 -7 -7 -7 -7 -7 -7 -7 -6 -6 -6 -5 -5 -5 -4 -3 -2 -1 -1
-11 -10 -10 -10 -10 -10 -10 -10 -10 -9 -9 -9 -9 -8 -8 -9 -8 -9 -8 -8 -8 -7 -7 -7 -7 -7 -7 -6 -6 -6 -6 -5 -5 -5 -4 -4 -3 -1
-11 -10 -10 -9 -10 -10 -10 -11 -11 -11 -11 -10 -10 -9 -9 -8 -8 -8 -8 -8 -8 -7 -7 -7 -7 -7 -7 -6 -6 -6 -6 -6 -6 -5 -4 -4 -3 -3
-11 -10 -10 -10 -10 -11 -11 -12 -11 -11 -11 -10 -10 -10 -9 -8 -8 -8 -8 -8 -8 -8 -7 -7 -7 -6 -6 -6 -6 -6 -6 -6 -6 -5 -5 -4 -4 -4
-11 -11 -11 -11 -11 -12 -12 -11 -11 -11 -11 -11 -10 -9 -9 -8 -8 -8 -8 -8 -8 -8 -8 -8 -8 -7 -7 -7 -6 -6 -6 -6 -6 -6 -5 -6 -4 -4
-12 -11 -12 -12 -12 -12 -12 -12 -12 -12 -11 -11 -10 -10 -9 -8 -8 -8 -8 -8 -8 -8 -8 -8 -8 -8 -8 -8 -7 -6 -6 -6 -6 -6 -6 -5 -5 -5
-12 -12 -12 -12 -12 -12 -12 -12 -12 -12 -12 -11 -10 -10 -9 -9 -8 -8 -8 -8 -8 -7 -8 -8 -8 -8 -8 -8 -7 -7 -6 -6 -6 -6 -6 -6 -6 -5
-13 -13 -13 -13 -13 -13 -13 -13 -13 -13 -12 -12 -11 -10 -10 -9 -8 -8 -8 -8 -7 -7 -7 -7 -7 -8 -7 -7 -7 -7 -7 -7 -6 -6 -6 -7 -6 -6
-13 -13 -14 -14 -14 -14 -14 -14 -13 -13 -13 -12 -12 -11 -10 -9 -9 -8 -8 -8 -8 -7 -7 -7 -7 -7 -7 -6 -6 -6 -7 -7 -7 -6 -6 -7 -7 -6
-14 -14 -14 -15 -15 -15 -15 -15 -14 -14 -13 -13 -12 -12 -10 -10 -10 -9 -9 -8 -8 -8 -8 -8 -8 -7 -7 -7 -6 -7 -7 -7 -8 -7 -7 -7 -7 -7
-14 -15 -16 -16 -16 -15 -15 -15 -14 -14 -14 -13 -13 -13 -11 -11 -11 -10 -10 -9 -9 -8 -8 -9 -8 -8 -8 -8 -8 -8 -8 -8 -8 -9 -8 -8 -8 -8
-16 -17 -16 -16 -16 -16 -16 -15 -14 -14 -14 -14 -13 -13 -12 -12 -11 -11 -11 -10 -10 -10 -10 -10 -10 -10 -9 -9 -8 -9 -10 -9 -9 -9 -9 -9 -8 -7
-16 -17 -17 -16 -16 -16 -16 -16 -15 -15 -15 -14 -14 -13 -13 -12 -12 -12 -11 -11 -11 -11 -10 -10 -10 -10 -10 -10 -9 -10 -10 -11 -11 -10 -10 -10 -9 -9

GFSNE_850_temp_003.txt.gz
Temp
-2 -3 -3 -3 -2 -3 -3 -3 -3 -2 -0 1 -0 0 0 0 2 2 1 1 1 1 1 1 2 2 3 3 4 4 4 4 5 5 6 6 7 7
-2 -2 -2 -2 -2 -2 -2 -3 -3 -3 -2 -1 0 -0 1 2 2 1 1 1 0 -0 -0 0 1 1 1 2 3 3 3 4 4 4 5 5 6 6
-3 -2 -2 -2 -2 -2 -2 -1 -1 -1 -1 -0 0 1 1 1 1 1 1 0 0 -0 -0 -0 -0 0 0 1 1 2 2 3 3 3 4 4 4 5
-3 -3 -3 -3 -3 -2 -2 -2 -2 -1 -1 -1 -1 -0 -0 0 0 1 0 1 0 1 0 -0 -1 -1 -0 -0 0 1 1 2 2 2 3 3 3 3
-3 -4 -3 -4 -3 -3 -3 -3 -3 -2 -2 -2 -2 -1 -1 -1 -0 -0 -0 -0 -0 -0 -0 -1 -2 -2 -2 -1 -1 -0 -0 1 1 1 1 2 2 2
-4 -4 -4 -4 -4 -4 -4 -4 -4 -4 -3 -3 -3 -2 -2 -2 -2 -1 -1 -1 -1 -1 -1 -1 -1 -2 -2 -2 -3 -2 -1 -0 -0 1 1 1 1 2
-5 -4 -4 -5 -5 -6 -6 -7 -7 -6 -5 -5 -4 -3 -2 -2 -2 -2 -2 -2 -2 -2 -2 -2 -2 -2 -2 -2 -2 -2 -2 -1 -1 -0 0 1 1 1
-6 -6 -5 -5 -6 -7 -7 -8 -8 -8 -8 -7 -6 -5 -4 -4 -3 -3 -3 -4 -3 -3 -3 -3 -3 -3 -3 -3 -2 -2 -2 -2 -2 -1 -1 -0 0 0
-8 -7 -7 -6 -7 -7 -7 -7 -8 -8 -9 -9 -9 -8 -7 -7 -6 -6 -6 -5 -5 -5 -5 -5 -5 -4 -4 -4 -3 -4 -4 -4 -3 -3 -2 -1 -1 -0
-9 -8 -8 -8 -8 -8 -9 -9 -9 -9 -9 -9 -9 -9 -8 -8 -8 -7 -7 -7 -7 -6 -6 -6 -5 -5 -5 -5 -5 -4 -4 -5 -4 -4 -4 -3 -3 -1
-10 -10 -9 -9 -9 -9 -10 -10 -10 -9 -9 -9 -8 -8 -8 -8 -8 -8 -8 -8 -7 -7 -6 -6 -6 -6 -6 -6 -6 -6 -5 -5 -4 -4 -4 -4 -3 -3
-11 -10 -10 -10 -10 -10 -10 -10 -10 -9 -9 -9 -9 -8 -8 -8 -8 -8 -9 -8 -8 -7 -6 -6 -6 -6 -6 -6 -5 -5 -6 -5 -5 -5 -5 -5 -4 -4
-11 -11 -10 -9 -9 -10 -10 -10 -11 -11 -10 -11 -10 -10 -9 -9 -8 -8 -8 -8 -8 -7 -7 -7 -7 -6 -6 -6 -5 -5 -5 -5 -5 -5 -5 -5 -5 -5
-12 -11 -10 -10 -10 -10 -11 -11 -11 -11 -11 -10 -10 -9 -9 -9 -8 -8 -8 -7 -7 -7 -7 -8 -7 -7 -6 -6 -6 -5 -5 -5 -5 -5 -5 -5 -5 -5
-12 -11 -11 -11 -11 -11 -11 -12 -11 -11 -10 -10 -10 -9 -9 -8 -8 -8 -7 -7 -7 -7 -7 -8 -8 -7 -7 -7 -6 -6 -6 -5 -5 -5 -5 -6 -6 -5
-12 -12 -12 -12 -12 -11 -12 -11 -11 -11 -11 -10 -10 -10 -9 -8 -8 -7 -7 -7 -7 -7 -7 -7 -7 -8 -7 -7 -7 -7 -6 -6 -6 -6 -5 -6 -5 -5
-13 -13 -13 -13 -12 -12 -12 -12 -12 -11 -11 -11 -10 -10 -9 -9 -8 -7 -7 -7 -7 -7 -7 -7 -7 -7 -8 -8 -8 -7 -7 -6 -6 -6 -6 -6 -5 -5
-13 -13 -14 -14 -13 -13 -13 -13 -12 -12 -12 -12 -11 -10 -10 -9 -8 -7 -7 -7 -7 -7 -7 -7 -7 -7 -8 -7 -7 -7 -7 -7 -7 -6 -6 -6 -6 -6
-14 -14 -14 -14 -13 -13 -13 -13 -13 -13 -12 -12 -11 -11 -11 -10 -9 -8 -8 -7 -7 -7 -7 -6 -7 -7 -7 -7 -7 -7 -7 -7 -7 -6 -6 -6 -6 -6
-14 -15 -15 -15 -14 -14 -14 -14 -13 -13 -13 -12 -12 -12 -11 -10 -10 -9 -9 -8 -8 -7 -7 -7 -7 -7 -7 -7 -7 -7 -7 -7 -7 -8 -7 -7 -6 -7
-16 -15 -15 -15 -15 -15 -15 -14 -13 -13 -13 -13 -12 -12 -11 -11 -10 -10 -10 -9 -9 -8 -8 -8 -8 -8 -8 -8 -8 -7 -7 -8 -8 -8 -8 -7 -7 -8
-16 -16 -16 -16 -16 -15 -15 -15 -14 -14 -14 -14 -13 -12 -11 -11 -11 -11 -11 -10 -10 -9 -9 -9 -10 -9 -9 -9 -8 -8 -9 -9 -9 -9 -9 -9 -8 -8
-16 -16 -16 -16 -16 -16 -16 -15 -15 -15 -14 -14 -14 -13 -12 -12 -11 -11 -11 -11 -11 -10 -10 -10 -9 -9 -10 -10 -9 -9 -9 -10 -10 -10 -10 -10 -10 -9

GFSNE_850_temp_006.txt.gz
Temp
-2 -2 -2 -2 -2 -2 -2 -2 -3 -3 -2 -1 -1 -1 -1 -1 -0 -0 -1 0 1 2 2 2 1 2 2 3 3 3 4 4 4 5 5 6 6 7
-3 -3 -3 -3 -3 -3 -3 -2 -2 -2 -2 -2 -1 -1 -1 -1 -2 -1 -1 -0 0 0 1 1 1 1 1 2 2 2 3 3 3 3 4 4 5 6
-3 -3 -3 -3 -4 -4 -4 -3 -3 -2 -2 -1 -1 -1 -0 -0 0 -1 -2 -1 -0 0 0 0 0 1 1 1 1 1 2 2 2 3 3 3 4 4
-4 -4 -3 -3 -3 -4 -4 -4 -3 -3 -2 -2 -2 -2 -1 -1 -1 -0 -0 0 0 0 0 0 0 0 -0 -0 0 0 1 1 2 2 2 2 3 3
-4 -4 -4 -4 -4 -4 -4 -4 -4 -4 -4 -4 -3 -3 -3 -2 -2 -1 -1 -1 -0 -0 -0 -0 -0 -0 -1 -1 -0 -0 0 0 1 1 1 1 1 2
-5 -5 -5 -5 -5 -5 -6 -5 -5 -5 -5 -5 -5 -5 -4 -3 -3 -2 -2 -1 -1 -1 -1 -1 -1 -1 -1 -1 -1 -1 -1 -1 -0 -0 0 0 1 1
-6 -6 -6 -6 -6 -6 -6 -7 -7 -6 -6 -6 -6 -6 -5 -4 -3 -3 -3 -3 -2 -2 -2 -2 -2 -2 -2 -2 -2 -2 -2 -2 -2 -1 -0 0 0 0
-8 -8 -8 -8 -7 -6 -7 -7 -7 -7 -7 -7 -8 -8 -7 -6 -6 -6 -5 -5 -5 -4 -4 -3 -3 -3 -3 -3 -4 -3 -3 -3 -3 -3 -2 -2 -1 -1
-10 -10 -9 -9 -8 -8 -8 -8 -8 -8 -8 -8 -9 -8 -8 -8 -7 -7 -6 -6 -6 -6 -5 -5 -4 -4 -4 -3 -4 -4 -4 -4 -3 -3 -3 -3 -3 -2
-11 -11 -10 -10 -10 -9 -9 -9 -9 -9 -9 -9 -9 -8 -9 -8 -8 -8 -8 -8 -7 -6 -6 -6 -5 -5 -5 -4 -4 -4 -4 -4 -4 -4 -4 -4 -3 -3
-11 -11 -11 -10 -10 -10 -10 -9 -9 -9 -9 -9 -9 -9 -9 -9 -8 -9 -8 -8 -8 -7 -7 -7 -6 -6 -6 -5 -5 -5 -5 -4 -5 -5 -4 -4 -4 -4
-11 -11 -11 -11 -10 -10 -10 -10 -10 -9 -9 -9 -9 -9 -9 -9 -8 -8 -8 -8 -8 -8 -7 -7 -7 -7 -7 -6 -6 -5 -5 -5 -5 -5 -5 -5 -4 -5
-12 -12 -11 -10 -11 -11 -10 -10 -10 -10 -10 -10 -10 -9 -9 -9 -9 -9 -8 -8 -8 -8 -7 -8 -8 -7 -7 -7 -6 -6 -5 -5 -5 -5 -5 -5 -5 -5
-12 -12 -12 -11 -11 -11 -11 -11 -11 -11 -11 -10 -10 -9 -9 -9 -8 -8 -8 -8 -8 -7 -7 -7 -7 -7 -7 -7 -7 -6 -6 -6 -6 -6 -6 -5 -5 -5
-13 -12 -12 -12 -12 -11 -11 -11 -11 -11 -10 -10 -10 -10 -9 -9 -8 -8 -8 -8 -8 -7 -7 -7 -7 -7 -8 -8 -7 -7 -6 -6 -6 -6 -6 -6 -5 -5
-13 -12 -12 -12 -12 -11 -11 -11 -11 -11 -11 -11 -10 -10 -9 -9 -8 -8 -7 -7 -7 -7 -7 -7 -7 -7 -8 -8 -7 -7 -7 -7 -6 -6 -6 -5 -5 -5
-13 -13 -13 -13 -12 -12 -12 -12 -12 -12 -11 -11 -11 -10 -10 -9 -8 -8 -7 -7 -7 -7 -7 -7 -7 -7 -7 -8 -8 -8 -7 -7 -7 -6 -6 -6 -5 -5
-13 -14 -14 -14 -13 -13 -13 -13 -13 -12 -12 -12 -11 -11 -10 -10 -9 -8 -7 -7 -7 -7 -7 -7 -7 -7 -7 -7 -7 -7 -7 -7 -7 -7 -7 -7 -6 -6
-14 -14 -14 -14 -14 -14 -14 -13 -13 -13 -12 -12 -11 -11 -11 -10 -9 -9 -8 -8 -8 -7 -7 -7 -6 -7 -7 -7 -6 -7 -7 -7 -7 -7 -7 -7 -6 -6
-15 -15 -15 -15 -15 -15 -14 -14 -13 -13 -13 -12 -12 -11 -11 -10 -10 -10 -9 -9 -9 -8 -7 -7 -7 -7 -7 -7 -7 -7 -7 -7 -7 -7 -7 -7 -7 -7
-15 -15 -15 -15 -15 -15 -15 -14 -14 -13 -13 -13 -12 -12 -11 -11 -11 -10 -10 -10 -9 -9 -9 -9 -8 -8 -8 -8 -8 -7 -8 -8 -8 -8 -8 -8 -7 -7
-15 -15 -15 -15 -15 -15 -15 -15 -14 -14 -14 -14 -13 -12 -12 -11 -11 -11 -11 -10 -10 -10 -10 -9 -9 -10 -9 -9 -8 -8 -9 -9 -9 -9 -9 -9 -8 -8
-14 -14 -15 -15 -14 -14 -14 -14 -15 -14 -14 -14 -14 -13 -13 -12 -12 -11 -11 -11 -11 -11 -10 -10 -10 -9 -10 -10 -9 -9 -9 -10 -10 -10 -9 -10 -9 -9

GFSNE_850_temp_009.txt.gz
Temp
-3 -3 -2 -3 -3 -3 -3 -3 -3 -3 -3 -2 -2 -1 -1 -1 -1 -1 -1 -1 -1 -1 1 2 2 3 3 2 3 3 3 3 4 4 4 4 5 5
-4 -4 -3 -4 -4 -4 -4 -4 -4 -4 -4 -3 -3 -2 -1 -1 -1 -2 -2 -2 -1 -1 -2 0 1 1 2 1 1 2 2 3 3 3 4 4 4 4
-4 -4 -4 -4 -4 -4 -4 -4 -5 -4 -5 -4 -3 -3 -2 -2 -1 -2 -3 -3 -2 -1 -1 -0 0 1 1 1 1 1 1 1 2 2 3 3 3 4
-4 -4 -4 -4 -4 -4 -4 -5 -4 -4 -4 -4 -4 -4 -3 -3 -3 -2 -2 -3 -4 -3 -2 -1 -0 0 0 0 -0 -0 0 0 1 1 1 2 2 3
-4 -5 -5 -5 -5 -5 -6 -6 -5 -5 -5 -5 -5 -4 -4 -4 -3 -3 -3 -2 -3 -3 -2 -1 -1 -1 -1 -0 -0 -0 -0 -0 -0 0 0 1 1 1
-6 -6 -7 -7 -7 -7 -7 -7 -6 -6 -6 -5 -6 -5 -5 -5 -5 -4 -3 -3 -2 -2 -2 -1 -1 -1 -1 -1 -1 -1 -1 -1 -1 -1 -1 -0 -0 0
-7 -7 -8 -8 -9 -9 -8 -8 -7 -7 -7 -7 -7 -6 -6 -6 -6 -5 -5 -5 -4 -4 -3 -2 -2 -2 -2 -2 -2 -2 -2 -2 -2 -2 -2 -2 -2 -1
-9 -9 -9 -10 -10 -10 -9 -9 -8 -8 -8 -8 -8 -8 -8 -8 -7 -7 -7 -7 -6 -5 -4 -3 -3 -3 -3 -2 -3 -2 -2 -2 -3 -2 -2 -2 -3 -2
-9 -10 -10 -11 -11 -10 -10 -10 -9 -9 -8 -8 -8 -8 -8 -8 -8 -8 -8 -8 -8 -7 -6 -5 -4 -4 -4 -4 -4 -4 -4 -3 -3 -3 -3 -3 -2 -3
-10 -11 -11 -11 -11 -11 -10 -10 -10 -9 -9 -9 -9 -8 -9 -8 -9 -9 -9 -9 -8 -8 -7 -7 -6 -5 -5 -5 -5 -5 -5 -5 -5 -4 -3 -4 -4 -3
-11 -11 -11 -11 -11 -11 -10 -10 -10 -9 -9 -9 -9 -9 -9 -9 -9 -9 -9 -8 -8 -7 -7 -8 -7 -7 -6 -5 -5 -5 -5 -5 -5 -5 -4 -4 -4 -4
-12 -12 -12 -12 -11 -11 -11 -11 -10 -10 -10 -10 -10 -9 -9 -9 -9 -9 -9 -9 -9 -8 -7 -8 -7 -7 -7 -6 -5 -5 -5 -5 -5 -5 -5 -5 -5 -4
-12 -13 -12 -12 -12 -11 -11 -12 -11 -11 -11 -11 -10 -10 -10 -9 -9 -9 -9 -9 -9 -9 -7 -8 -8 -8 -8 -7 -6 -6 -6 -6 -6 -5 -5 -6 -5 -5
-13 -13 -12 -12 -12 -12 -11 -11 -11 -11 -11 -11 -10 -10 -10 -9 -9 -9 -8 -9 -9 -9 -8 -8 -8 -7 -7 -7 -7 -6 -6 -6 -6 -6 -6 -5 -5 -6
-13 -13 -13 -13 -12 -12 -12 -11 -11 -11 -11 -11 -11 -10 -10 -9 -9 -9 -8 -8 -8 -8 -8 -8 -8 -7 -7 -7 -7 -7 -7 -6 -6 -6 -6 -5 -5 -6
-13 -13 -13 -13 -12 -13 -12 -12 -12 -12 -11 -11 -11 -10 -10 -9 -9 -8 -8 -7 -7 -7 -7 -7 -7 -7 -7 -7 -8 -7 -7 -8 -7 -7 -6 -6 -6 -6
-13 -14 -14 -13 -13 -13 -13 -13 -13 -12 -12 -12 -11 -11 -10 -10 -9 -8 -8 -7 -8 -8 -7 -7 -7 -7 -7 -7 -8 -8 -7 -7 -7 -7 -7 -6 -6 -5
-14 -14 -14 -14 -14 -14 -14 -13 -13 -13 -12 -12 -12 -11 -11 -10 -9 -9 -8 -8 -7 -7 -7 -7 -7 -7 -7 -7 -7 -7 -7 -8 -8 -7 -7 -7 -6 -6
-14 -15 -15 -15 -15 -15 -14 -14 -13 -13 -13 -12 -12 -11 -11 -10 -10 -9 -9 -8 -8 -7 -7 -7 -7 -7 -7 -7 -7 -7 -7 -7 -7 -8 -8 -7 -7 -6
-14 -15 -15 -15 -15 -15 -15 -14 -14 -14 -13 -13 -12 -11 -11 -11 -10 -10 -10 -10 -9 -9 -9 -8 -8 -8 -8 -8 -8 -7 -7 -7 -7 -7 -7 -7 -7 -7
-14 -14 -15 -15 -15 -15 -15 -15 -14 -14 -14 -13 -12 -12 -12 -11 -11 -11 -11 -10 -10 -10 -9 -9 -9 -9 -9 -9 -9 -8 -8 -8 -8 -7 -7 -8 -8 -8
-13 -13 -14 -14 -14 -14 -14 -14 -14 -14 -13 -13 -13 -13 -12 -12 -12 -12 -11 -11 -11 -11 -10 -10 -10 -9 -10 -10 -9 -9 -9 -9 -9 -9 -9 -9 -9 -8
-13 -13 -13 -13 -13 -13 -13 -13 -14 -13 -13 -13 -13 -13 -13 -12 -12 -12 -12 -12 -12 -12 -11 -10 -10 -10 -9 -10 -10 -9 -9 -9 -10 -9 -10 -10 -9 -9

GFSNE_850_temp_012.txt.gz
Temp
-4 -4 -4 -4 -4 -4 -4 -5 -5 -5 -5 -4 -4 -3 -2 -2 -2 -2 -2 -2 -1 -1 -0 -0 -0 1 -0 2 3 3 3 3 3 3 4 3 4 4
-3 -4 -4 -4 -4 -4 -5 -5 -5 -5 -5 -5 -4 -4 -3 -3 -2 -2 -2 -3 -2 -2 -1 -1 -1 -1 -1 -0 0 1 2 3 3 3 3 3 3 3
-4 -4 -4 -4 -4 -4 -4 -5 -5 -5 -5 -5 -5 -4 -4 -3 -3 -2 -2 -3 -3 -3 -2 -2 -2 -2 -2 -2 -1 -1 1 1 2 2 2 2 3 3
-4 -4 -5 -5 -5 -5 -6 -6 -6 -6 -6 -5 -5 -5 -5 -5 -4 -4 -3 -3 -3 -3 -3 -3 -2 -2 -2 -1 -0 -0 0 0 1 1 1 2 1 2
-5 -6 -6 -6 -7 -7 -7 -7 -6 -6 -6 -6 -6 -6 -6 -5 -5 -4 -4 -4 -3 -3 -3 -4 -4 -3 -3 -1 -0 -0 -0 -0 -0 -0 0 0 1 1
-6 -7 -8 -9 -9 -9 -9 -9 -8 -8 -7 -7 -7 -7 -6 -6 -5 -5 -5 -5 -4 -3 -3 -3 -3 -2 -2 -1 -1 -1 -1 -1 -1 -1 -1 -1 -0 0
-8 -8 -9 -10 -10 -10 -10 -10 -9 -9 -8 -8 -8 -8 -7 -7 -6 -6 -7 -7 -5 -5 -4 -4 -3 -2 -2 -2 -1 -1 -1 -1 -2 -2 -2 -2 -2 -2
-9 -9 -10 -10 -11 -11 -11 -10 -10 -10 -9 -9 -8 -8 -8 -7 -7 -7 -8 -8 -7 -6 -6 -4 -5 -4 -4 -3 -2 -2 -2 -2 -2 -2 -2 -2 -2 -2
-10 -10 -11 -11 -11 -11 -11 -10 -10 -10 -10 -10 -9 -9 -8 -8 -8 -8 -8 -8 -8 -7 -7 -5 -4 -5 -5 -4 -3 -3 -3 -3 -3 -3 -3 -3 -3 -3
-11 -11 -11 -12 -12 -12 -11 -11 -10 -10 -10 -10 -10 -9 -9 -9 -9 -9 -9 -9 -9 -8 -8 -8 -5 -5 -4 -5 -5 -5 -5 -4 -4 -4 -4 -4 -4 -4
-11 -11 -12 -12 -12 -11 -11 -11 -11 -10 -10 -10 -10 -10 -10 -10 -9 -9 -9 -9 -9 -8 -8 -8 -7 -7 -6 -5 -5 -5 -5 -5 -5 -5 -4 -4 -4 -4
-12 -12 -12 -12 -12 -11 -11 -11 -11 -11 -11 -10 -10 -10 -10 -10 -10 -9 -9 -9 -9 -9 -8 -8 -7 -8 -8 -7 -6 -6 -6 -6 -6 -5 -5 -5 -5 -5
-13 -13 -12 -12 -12 -12 -11 -11 -11 -11 -11 -11 -11 -11 -10 -10 -10 -9 -9 -9 -9 -9 -9 -9 -8 -8 -9 -8 -7 -6 -6 -6 -6 -6 -6 -6 -5 -5
-13 -13 -13 -13 -12 -12 -12 -12 -11 -11 -11 -11 -11 -10 -10 -10 -9 -9 -9 -9 -9 -9 -9 -9 -9 -8 -8 -8 -7 -6 -6 -6 -6 -6 -6 -6 -6 -6
-13 -13 -13 -13 -13 -13 -12 -12 -12 -11 -11 -11 -11 -11 -10 -10 -9 -9 -9 -8 -8 -8 -8 -8 -8 -8 -8 -8 -7 -7 -7 -7 -7 -7 -6 -6 -6 -6
-13 -13 -13 -13 -13 -13 -13 -13 -13 -12 -12 -12 -11 -11 -10 -10 -9 -9 -8 -8 -7 -7 -8 -7 -8 -8 -8 -7 -8 -7 -7 -8 -7 -7 -7 -7 -6 -6
-14 -14 -14 -14 -14 -13 -13 -13 -13 -13 -12 -12 -12 -11 -11 -10 -9 -9 -8 -8 -8 -7 -7 -7 -7 -7 -8 -8 -8 -7 -7 -8 -8 -8 -8 -7 -6 -6
-14 -14 -14 -14 -14 -14 -14 -14 -13 -13 -13 -12 -12 -11 -11 -10 -10 -9 -9 -8 -8 -7 -7 -7 -7 -7 -7 -8 -8 -7 -7 -7 -7 -8 -8 -7 -7 -6
-13 -14 -15 -15 -15 -15 -15 -15 -14 -14 -13 -13 -12 -11 -11 -11 -10 -10 -10 -9 -9 -8 -8 -8 -7 -7 -7 -7 -7 -7 -7 -7 -7 -7 -8 -7 -7 -7
-13 -14 -14 -14 -14 -15 -15 -15 -14 -14 -13 -13 -12 -12 -11 -11 -11 -11 -10 -10 -10 -9 -9 -9 -8 -7 -7 -8 -8 -8 -8 -7 -7 -8 -8 -8 -8 -7
-13 -13 -14 -14 -14 -14 -14 -14 -14 -14 -14 -13 -13 -12 -12 -12 -12 -11 -11 -11 -11 -10 -10 -9 -9 -9 -9 -9 -9 -8 -8 -8 -8 -8 -8 -8 -8 -8
-13 -13 -13 -13 -14 -14 -14 -13 -13 -13 -13 -13 -13 -13 -13 -12 -12 -12 -12 -12 -12 -11 -11 -10 -10 -10 -10 -10 -9 -9 -9 -9 -9 -9 -9 -9 -9 -9
-13 -13 -13 -13 -13 -13 -13 -13 -13 -13 -13 -14 -14 -14 -13 -13 -13 -13 -13 -13 -12 -12 -11 -11 -10 -10 -10 -10 -10 -9 -9 -9 -10 -10 -10 -10 -10 -9